This demonstration page uses our WeatherBlox Daily Observations layout. Learn more.

Left ArrowRight Arrow

40.92945, -100.16068

Hourly Observations for October 23, 2020

Temp ( °F °C ) Dew Point ( °F °C ) Humidity (%) Winds ( mph kmh ) Pressure ( in mb ) Visibility ( mi km ) Precip ( " mm )
12:15 am 00:15 Cloudy 32 0.1 28 -2 86 86 N 20 31 30.33 1027 10 16 N/A
12:35 am 00:35 Cloudy 32 0.1 28 -2.1 85 85 N 20 31 30.34 1027 10 16 N/A
12:55 am 00:55 Cloudy 32 0.1 28 -2.1 85 85 N 23 37 30.33 1027 10 16 N/A
1:15 am 01:15 Cloudy 32 undefined 28 -2 87 87 N 21 33 30.34 1027 10 16 N/A
1:35 am 01:35 Cloudy 32 undefined 29 -1.7 88 88 N 22 35 30.34 1027 10 16 N/A
1:55 am 01:55 Cloudy 32 -0.1 28 -2 87 87 N 22 35 30.35 1028 10 16 N/A
2:15 am 02:15 Cloudy 32 -0.1 28 -2 87 87 N 18 30 30.37 1028 10 16 N/A
2:35 am 02:35 Cloudy 32 undefined 28 -2.2 85 85 N 21 33 30.37 1028 10 16 N/A
2:55 am 02:55 Cloudy 32 undefined 28 -2.5 83 83 N 20 31 30.39 1029 10 16 N/A
3:15 am 03:15 Cloudy 32 undefined 27 -2.6 83 83 N 17 28 30.39 1029 10 16 N/A
3:35 am 03:35 Cloudy 32 undefined 27 -2.6 83 83 N 20 31 30.40 1029 10 16 N/A
3:55 am 03:55 Cloudy 32 -0.2 27 -3 82 82 N 17 28 30.41 1030 10 16 N/A
4:15 am 04:15 Cloudy 31 -0.3 26 -3.4 80 80 N 22 35 30.42 1030 10 16 N/A
4:35 am 04:35 Cloudy 31 -0.3 26 -3.2 81 81 N 17 28 30.43 1031 10 16 N/A
4:55 am 04:55 Cloudy 31 -0.4 26 -3.6 79 79 N 17 28 30.44 1031 10 16 N/A
5:15 am 05:15 Cloudy 31 -0.5 25 -3.8 79 79 N 22 35 30.44 1031 10 16 N/A
5:35 am 05:35 Cloudy 31 -0.5 25 -3.7 79 79 N 15 24 30.44 1031 10 16 N/A
5:55 am 05:55 Cloudy 31 -0.7 25 -4 79 79 N 15 24 30.45 1031 10 16 N/A
6:15 am 06:15 Cloudy 31 -0.8 24 -4.2 78 78 N 23 37 30.47 1032 10 16 N/A
6:35 am 06:35 Cloudy 31 -0.8 25 -4 79 79 N 17 28 30.48 1032 10 16 N/A
6:55 am 06:55 Cloudy 31 -0.8 25 -4 79 79 N 18 30 30.48 1032 10 16 N/A
7:15 am 07:15 Cloudy 30 -1 25 -4.1 80 80 N 15 24 30.49 1032 10 16 N/A
7:35 am 07:35 Cloudy 30 -1 24 -4.4 78 78 N 20 31 30.50 1033 10 16 N/A
7:55 am 07:55 Cloudy 30 -1.1 24 -4.5 78 78 N 18 30 30.51 1033 10 16 N/A
8:15 am 08:15 Cloudy 30 -1 24 -4.3 79 79 N 18 30 30.52 1033 10 16 N/A
8:35 am 08:35 Cloudy 30 -1 24 -4.3 79 79 N 18 30 30.52 1033 10 16 N/A
8:55 am 08:55 Cloudy 30 -1 24 -4.5 77 77 N 21 33 30.54 1034 10 16 N/A
9:15 am 09:15 Cloudy 31 -0.8 24 -4.6 76 76 N 17 28 30.54 1034 10 16 N/A
9:35 am 09:35 Cloudy 31 -0.6 24 -4.3 76 76 N 15 24 30.54 1034 10 16 N/A
9:55 am 09:55 Cloudy 31 -0.5 24 -4.3 76 76 N 20 31 30.54 1034 10 16 N/A
10:15 am 10:15 Cloudy 32 -0.1 25 -4 75 75 N 16 26 30.55 1035 10 16 N/A
10:35 am 10:35 Cloudy 32 -0.1 25 -3.7 77 77 N 14 22 30.55 1035 10 16 N/A
10:55 am 10:55 Cloudy 32 undefined 25 -4.1 74 74 N 16 26 30.56 1035 10 16 N/A
11:15 am 11:15 Cloudy 32 undefined 24 -4.3 73 73 N 18 30 30.57 1035 10 16 N/A
11:35 am 11:35 Cloudy 31 -0.3 24 -4.7 73 73 NNW 16 26 30.58 1036 10 16 N/A
11:55 am 11:55 Cloudy 31 -0.5 24 -4.5 75 75 NNW 14 22 30.59 1036 10 16 N/A
12:15 pm 12:15 Cloudy 31 -0.5 23 -4.9 72 72 N 16 26 30.59 1036 10 16 N/A
12:35 pm 12:35 Cloudy 31 -0.3 23 -5 71 71 N 13 20 30.59 1036 10 16 N/A
12:55 pm 12:55 Cloudy 32 undefined 23 -5 69 69 N 12 19 30.58 1036 10 16 N/A
1:15 pm 13:15 Cloudy 32 -0.1 23 -5 70 70 NW 15 24 30.57 1035 10 16 N/A
1:35 pm 13:35 Cloudy 32 -0.2 23 -5.2 69 69 N 12 19 30.57 1035 10 16 N/A
1:55 pm 13:55 Cloudy 32 undefined 23 -5.1 69 69 N 13 20 30.56 1035 10 16 N/A
2:15 pm 14:15 Cloudy 31 -0.3 23 -4.9 71 71 NNW 10 17 30.56 1035 10 16 N/A
2:35 pm 14:35 Cloudy 32 -0.2 22 -5.4 68 68 N 10 17 30.55 1035 10 16 N/A
2:55 pm 14:55 Cloudy 32 -0.2 22 -5.5 68 68 NNW 8 13 30.55 1035 10 16 N/A
3:15 pm 15:15 Cloudy 31 -0.3 22 -5.6 68 68 NNW 10 17 30.54 1034 10 16 N/A
3:35 pm 15:35 Cloudy 32 -0.2 22 -5.4 68 68 N 12 19 30.54 1034 10 16 N/A
3:55 pm 15:55 Cloudy 32 -0.2 22 -5.6 67 67 NNW 13 20 30.53 1034 10 16 N/A
4:15 pm 16:15 Cloudy 32 -0.2 22 -5.8 66 66 N 10 17 30.52 1034 10 16 N/A
4:35 pm 16:35 Cloudy 32 -0.2 21 -5.9 66 66 N 12 19 30.51 1033 10 16 N/A
4:55 pm 16:55 Cloudy 32 -0.2 22 -5.8 66 66 N 9 15 30.50 1033 10 16 N/A
5:15 pm 17:15 Cloudy 31 -0.3 21 -6.2 65 65 N 9 15 30.50 1033 10 16 N/A
5:35 pm 17:35 Cloudy 31 -0.4 21 -6.1 66 66 N 10 17 30.50 1033 10 16 N/A
5:55 pm 17:55 Cloudy 31 -0.5 20 -6.4 65 65 NNE 7 11 30.50 1033 10 16 N/A
6:15 pm 18:15 Cloudy 31 -0.5 21 -6.1 66 66 NNE 5 7 30.50 1033 10 16 N/A
6:35 pm 18:35 Cloudy 31 -0.5 21 -6.2 66 66 NE 7 11 30.50 1033 10 16 N/A
6:55 pm 18:55 Cloudy 31 -0.7 21 -6.1 67 67 ENE 5 7 30.51 1033 10 16 N/A
7:15 pm 19:15 Cloudy 31 -0.8 22 -5.7 70 70 N N/A 30.50 1033 10 16 N/A
7:35 pm 19:35 Cloudy 30 -1 21 -5.9 70 70 ENE 5 7 30.50 1033 10 16 N/A
7:55 pm 19:55 Cloudy 30 -1 21 -5.9 70 70 NE 7 11 30.50 1033 10 16 N/A
8:15 pm 20:15 Cloudy 30 -1.2 21 -6.1 70 70 NE 6 9 30.50 1033 10 16 N/A
8:35 pm 20:35 Cloudy 30 -1.3 21 -6 71 71 NE 8 13 30.50 1033 10 16 N/A
8:55 pm 20:55 Cloudy 29 -1.5 21 -6 72 72 ENE 8 13 30.50 1033 10 16 N/A
9:15 pm 21:15 Cloudy 29 -1.6 21 -6.1 72 72 ENE 6 9 30.49 1033 10 16 N/A
9:35 pm 21:35 Cloudy 29 -1.8 21 -6.1 73 73 E 6 9 30.49 1032 10 16 N/A
9:55 pm 21:55 Cloudy 29 -1.8 21 -6 73 73 E 5 7 30.49 1032 10 16 N/A
10:15 pm 22:15 Cloudy 28 -2.1 21 -6.1 74 74 E 7 11 30.48 1032 10 16 N/A
10:35 pm 22:35 Partly Cloudy 27 -2.8 20 -6.4 77 77 E 6 9 30.48 1032 10 16 N/A
10:55 pm 22:55 Clear 26 -3.2 20 -6.5 78 78 E 7 11 30.47 1032 10 16 N/A
11:15 pm 23:15 Clear 26 -3.2 20 -6.5 78 78 ESE 6 9 30.47 1032 10 16 N/A
11:35 pm 23:35 Partly Cloudy 26 -3.5 20 -6.6 79 79 ESE 6 9 30.48 1032 10 16 N/A
11:55 pm 23:55 Cloudy 26 -3.1 20 -6.5 78 78 SE 6 9 30.47 1032 10 16 N/A

Powered by AerisWeather